Regional Weather Roundup
Issued by NWS

Home | Current Version | Previous Version | Text Only | Print | Product List | Glossary Off
Versions: 1 2 3 4 5 6 7 8 9 10 11 12 13 14 15 16 17 18 19 20 21 22 23 24 25 26 27 28 29 30 31 32 33 34 35 36 37 38 39 40 41 42 43 44 45 46 47 48 49 50

375
ASUS45 KSLC 141510
RWRUT

UTAH REGIONAL WEATHER ROUNDUP
NATIONAL WEATHER SERVICE SALT LAKE CITY UT
800 AM MST SUN FEB 14 2016

UTZ001>011-023>025-141600-

NORTHERN UTAH

CITY           SKY/WX    TMP DP  RH WIND       PRES   REMARKS
BRIGHAM CITY   CLOUDY    29  27  94 NW3       30.25R
HILL AFB       LGTSLEET  32  28  86 S10       30.23S VSB 3/4 WCI  24
LOGAN          LGT SNOW  27  26  96 N6        30.22R FOG     WCI  20
OGDEN          FRZ RAIN  30  30 100 S12       30.23S FOG     WCI  20
PROVO AIRPORT  FOG      N/A N/A N/A CALM      30.28R VSB 3/4
SALT LAKE CITY SNOW      29  28  96 S6        30.27S VSB 1/2 WCI  23
VERNAL         CLOUDY    22  18  85 SW3       30.14S
WENDOVER       CLOUDY    28  27  93 SW6       30.27S WCI  22
WEST JORDAN    CLOUDY    28  28 100 SE6       30.28R VSB 0   WCI  22

$$

UTZ012>022-026-027-141600-

SOUTHERN/CENTRAL UTAH

CITY           SKY/WX    TMP DP  RH WIND       PRES   REMARKS
BLANDING       CLOUDY    33  21  62 SE3       30.23R
BRYCE CANYON   MOCLDY    18   8  65 W16       30.24R WCI   3
CEDAR CITY     CLOUDY    22  17  81 S5        30.21S WCI  16
DELTA          CLOUDY    21  20  97 S5        30.25R WCI  15
HANKSVILLE     CLOUDY    30  30 100 N3        30.19S
MILFORD        CLOUDY    13  11  92 SW5       30.22S FOG     WCI   5
MOAB/CYNLANDS  CLOUDY    30  29  96 CALM      30.15S
PRICE          CLOUDY    31  20  63 N8        30.15R WCI  23
ST GEORGE      CLOUDY    36  21  55 S5        30.22S WCI  32
KANAB          MOCLDY    27  25  93 E3        30.24R

$$

REGIONAL REPORTS     COLORADO/ARIZONA

CITY           SKY/WX    TMP DP  RH WIND       PRES   REMARKS
CRAIG, CO      CLOUDY    15  12  88 CALM      30.13F
GRAND JUNCTION CLOUDY    29  26  89 E3        30.17R
RIFLE          CLOUDY    22  18  85 SE3       30.20R
MONTROSE       CLOUDY    28  21  75 CALM      30.18F
CORTEZ         CLOUDY    25  18  74 NE6       30.16F WCI  18
PAGE, AZ       MOCLDY    38  29  70 CALM      30.18R
GRAND CANYON   PTCLDY    24  20  84 CALM      30.22R
KINGMAN        PTCLDY    45  24  43 E8        30.15R
FLAGSTAFF      PTCLDY    24  17  74 CALM      30.22R

$$

REGIONAL REPORTS    NEVADA/IDAHO/WYOMING

CITY           SKY/WX    TMP DP  RH WIND       PRES   REMARKS
LAS VEGAS, NV  MOCLDY    49  19  30 CALM      30.12R
ELY            CLOUDY    19  13  77 S13       30.27R WCI   6
ELKO           CLOUDY    34  28  79 CALM      30.27R
POCATELLO, ID  CLOUDY    37  34  89 SW16      30.17S WCI  28
BURLEY         CLOUDY    37  35  92 W15G24    30.18R WCI  28
EVANSTON, WY   CLOUDY    28  24  85 SW16      30.16F WCI  16
ROCK SPRINGS   CLOUDY    32  22  66 W26G36    30.04F WCI  18

$$




USA.gov is the U.S. government's official web portal to all federal, state and local government web resources and services.